Flag for U.S.A. Weather past 2 weeks in Pasadena, California, U.S.A.

Now
67 °F

Clear.


Feels Like: 67 °F
Forecast: 59 / 81 °F
Wind: 3 mph from East

Location: Burbank-Glendale-Pasadena Airport

Current Time: Sep 5, 2015 at 3:36:49 AM

Latest Report: Sep 5, 2015 at 2:53 AM


Visibility: 10 mi

Pressure: 29.84 "Hg

Humidity: 66%

Dew point: 55 °F

Location of PasadenaLocation

Historic Weather in Pasadena — Graph

°F

Pasadena temperature yesterday

Maximum temperature yesterday: 79 °F (at 1:53 PM)
Minimum temperature yesterday: 66 °F (at 1:53 AM)
Average temperature yesterday: 71 °F

Past Weeks' High & Low Weather Summary

 TemperatureHumidityPressure
High101 °F (Aug 28, 1:53 PM)85% (Aug 22, 1:53 AM)29.97 "Hg (Aug 22, 1:53 AM)
Low66 °F (Aug 23, 6:53 AM)19% (Aug 28, 2:53 PM)29.77 "Hg (Aug 28, 4:53 PM)
Average77 °F57%29.86 "Hg
* Reported Aug 21 1:53 AM — Sep 5 1:53 AM, Pasadena, Weather by CustomWeather, © 2015

Note: Actual official high and low records may vary slightly from our data, if they occured in-between our weather recording intervals... More about our weather records

Advertising

Pasadena weather history for previous 24 hours

 ConditionsComfort  
Time TempWeatherWind HumidityBarometerVisibility
1:53 AM
Sat, Sep 5
67 °FClear.No wind68%29.84 "Hg10 mi
12:53 AM68 °FClear.No wind65%29.84 "Hg10 mi
11:53 PM
Fri, Sep 4
68 °FClear.No wind63%29.85 "Hg10 mi
10:53 PM69 °FClear.No wind59%29.84 "Hg10 mi
9:53 PM70 °FClear.3 mph57%29.83 "Hg10 mi
8:53 PM70 °FClear.No wind55%29.82 "Hg10 mi
7:53 PM71 °FSunny.6 mph55%29.80 "Hg10 mi
6:53 PM74 °FSunny.7 mph50%29.79 "Hg10 mi
5:53 PM75 °FSunny.9 mph50%29.79 "Hg10 mi
4:53 PM76 °FSunny.5 mph48%29.79 "Hg10 mi
3:53 PM77 °FSunny.9 mph47%29.79 "Hg10 mi
2:53 PM77 °FSunny.10 mph47%29.80 "Hg10 mi
1:53 PM79 °FSunny.6 mph45%29.82 "Hg10 mi
12:53 PM76 °FSunny.10 mph43%29.83 "Hg10 mi
11:53 AM73 °FOvercast.8 mph50%29.85 "Hg10 mi
10:53 AM71 °FOvercast.7 mph53%29.87 "Hg10 mi
9:53 AM69 °FMore clouds than sun.3 mph59%29.87 "Hg10 mi
8:53 AM68 °FOvercast.6 mph63%29.86 "Hg10 mi
7:53 AM67 °FOvercast.7 mph66%29.86 "Hg10 mi
6:53 AM67 °FOvercast.7 mph68%29.84 "Hg10 mi
5:53 AM67 °FOvercast.10 mph68%29.82 "Hg10 mi
4:53 AM67 °FOvercast.8 mph71%29.82 "Hg10 mi
3:53 AM67 °FOvercast.6 mph71%29.82 "Hg10 mi
Weather by CustomWeather, © 2015

See weather overviewHow to use our weather pages